Astoria, OR

8:16 AM PDT on July 20, 2017 (GMT -0700)
Astoria Regional

Weather History for KAST - April, 2014

Change the Weather History Date:

Saturday, April 26, 2014

  Actual Average Record
Temperature  
Mean Temperature 47 °F 50 °F  
Max Temperature 57 °F 58 °F 83 °F (1987)
Min Temperature 37 °F 42 °F 30 °F (1943)
Degree Days  
Heating Degree Days 18 15  
Month to date heating degree days 404 429  
Since 1 July heating degree days 4349 4349  
Cooling Degree Days 0 0  
Month to date cooling degree days 0 0  
Year to date cooling degree days 0 0  
Moisture  
Dew Point 41 °F    
Average Humidity 73    
Maximum Humidity 92    
Minimum Humidity 54    
Precipitation  
Precipitation 0.13 in 0.15 in 1.60 in (2010)
Month to date precipitation 7.35 4.65  
Year to date precipitation 31.97 29.49  
Sea Level Pressure  
Sea Level Pressure 29.77 in    
Wind  
Wind Speed 8 mph (South)    
Max Wind Speed 23 mph    
Max Gust Speed 37 mph    
Visibility 9 miles    
Events Rain    
T = Trace of Precipitation, MM = Missing Value Source: NWS Daily Summary

Daily Weather History Graph

Daily Weather History Graph

Search for Another Location

Airport or City:

Trip Planner

Search our weather history database for the weather conditions in past years. The results will help you decide how hot, cold, wet, or windy it might be!

Date:

Astronomy

Apr. 26, 2014 Rise Set
Actual Time 6:09 AM PDT 8:17 PM PDT
Civil Twilight 5:37 AM PDT 8:50 PM PDT
Nautical Twilight 4:57 AM PDT 9:30 PM PDT
Astronomical Twilight 4:12 AM PDT 10:15 PM PDT
Moon 4:47 AM PDT (4/26) 5:44 PM PDT (4/26)
Length of Visible Light 15h 13m
Length of Day
14h 07m
Waning Crescent, 7% of the Moon is Illuminated
Apr 26
Waning Crescent
Apr 28
New
May 6
First Quarter
May 14
Full
May 21
Last Quarter

Hourly Weather History & Observations

Time (PDT) Temp. Windchill Dew Point Humidity Pressure Visibility Wind Dir Wind Speed Gust Speed Precip Events Conditions
12:55 AM 41.0 °F 38.0 °F 37.9 °F 89% 29.88 in 10.0 mi SE 4.6 mph - N/A   Scattered Clouds
1:05 AM 41.0 °F 38.0 °F 39.0 °F 93% 29.88 in 10.0 mi ESE 4.6 mph - N/A   Mostly Cloudy
1:27 AM 41.0 °F 38.0 °F 37.9 °F 89% 29.88 in 10.0 mi SE 4.6 mph - N/A   Mostly Cloudy
1:55 AM 39.9 °F 37.8 °F 37.0 °F 89% 29.88 in 10.0 mi ESE 3.5 mph - N/A   Scattered Clouds
2:55 AM 39.0 °F 35.7 °F 37.0 °F 93% 29.87 in 10.0 mi ESE 4.6 mph - N/A   Partly Cloudy
3:55 AM 39.0 °F 35.7 °F 36.0 °F 89% 29.87 in 10.0 mi ESE 4.6 mph - N/A   Partly Cloudy
4:55 AM 37.0 °F 34.5 °F 35.1 °F 93% 29.86 in 10.0 mi East 3.5 mph - N/A   Mostly Cloudy
5:55 AM 37.9 °F 34.4 °F 36.0 °F 93% 29.86 in 10.0 mi ESE 4.6 mph - N/A   Partly Cloudy
6:55 AM 39.0 °F - 37.0 °F 93% 29.86 in 10.0 mi Calm Calm - N/A   Partly Cloudy
7:55 AM 42.1 °F 39.2 °F 39.0 °F 89% 29.85 in 10.0 mi ESE 4.6 mph - N/A   Clear
8:55 AM 46.9 °F - 39.9 °F 77% 29.83 in 10.0 mi SSE 5.8 mph - N/A   Partly Cloudy
9:55 AM 52.0 °F - 39.9 °F 63% 29.83 in 10.0 mi South 8.1 mph - N/A   Scattered Clouds
10:55 AM 53.1 °F - 37.9 °F 57% 29.82 in 10.0 mi North - - N/A   Mostly Cloudy
11:55 AM 53.1 °F - 37.9 °F 57% 29.81 in 10.0 mi SSW 13.8 mph 23.0 mph N/A   Mostly Cloudy
12:55 PM 55.9 °F - 39.0 °F 53% 29.78 in 10.0 mi SSW 11.5 mph 25.3 mph N/A   Mostly Cloudy
1:55 PM 52.0 °F - 39.0 °F 61% 29.78 in 10.0 mi SW 16.1 mph 27.6 mph N/A   Overcast
2:55 PM 52.0 °F - 41.0 °F 66% 29.77 in 10.0 mi SSW 20.7 mph 38.0 mph 0.00 in   Overcast
3:55 PM 52.0 °F - 44.1 °F 74% 29.76 in 10.0 mi South 12.7 mph 25.3 mph 0.01 in Rain Light Rain
4:55 PM 48.9 °F - 43.0 °F 80% 29.74 in 7.0 mi SSW 13.8 mph 20.7 mph 0.01 in Rain Light Rain
5:55 PM 48.0 °F - 42.1 °F 80% 29.71 in 7.0 mi South 11.5 mph 23.0 mph 0.06 in Rain Light Rain
6:55 PM 46.9 °F - 42.1 °F 83% 29.69 in 4.0 mi SE 8.1 mph - 0.04 in Rain Light Rain
7:37 PM 46.0 °F 42.5 °F 42.1 °F 86% 29.67 in 4.0 mi SSE 6.9 mph - 0.10 in Rain Rain
7:55 PM 46.0 °F 42.5 °F 42.1 °F 86% 29.65 in 6.0 mi SSE 6.9 mph - 0.18 in Rain Light Rain
8:40 PM 46.0 °F 42.5 °F 42.1 °F 86% 29.65 in 4.0 mi SSE 6.9 mph 19.6 mph 0.12 in Rain Rain
8:55 PM 46.9 °F - 44.1 °F 90% 29.65 in 4.0 mi SSW 11.5 mph 21.9 mph 0.14 in Rain Light Rain
9:29 PM 48.9 °F - 45.0 °F 86% 29.65 in 6.0 mi South 15.0 mph 24.2 mph 0.09 in Rain Light Rain
9:55 PM 50.0 °F - 46.9 °F 89% 29.66 in 10.0 mi SW 11.5 mph 18.4 mph 0.09 in   Overcast
10:22 PM 48.9 °F - 44.1 °F 83% 29.66 in 10.0 mi West 12.7 mph - N/A   Mostly Cloudy
10:52 PM 48.2 °F - 44.6 °F 87% 29.67 in 10.0 mi West 9.2 mph - N/A   Overcast
10:55 PM 48.9 °F - 44.1 °F 83% 29.67 in 10.0 mi West 9.2 mph - N/A   Overcast
11:26 PM 48.0 °F - 43.0 °F 83% 29.68 in 7.0 mi West 9.2 mph - 0.01 in Rain Light Rain
11:55 PM 48.0 °F - 43.0 °F 83% 29.70 in 10.0 mi WSW 8.1 mph - 0.01 in   Overcast